sat.trackr.live / text

‹ back to catalog

TIANLIAN 2-05

NORAD 63662 · 2025-084A

PAYLOAD ACTIVE UNKNOWN

§ Identity

Operator
Country
PRC
Launch date
2025-04-27
Launch site
XICLF
Launch vehicle
Mass (kg)
RCS (m²)

Purposes: comms

External: N2YO · Heavens-Above · Gunter

§ Orbital elements

Epoch: 2026-09-19T20:29:23.574048Z

Period
1,436.07 min
Inclination
4.2192°
Eccentricity
0.0001193
Mean motion
1.00273883 rev/d
Perigee alt
35,781.0 km
Apogee alt
35,791.0 km
Semi-major
42,164.1 km
B*
0.0000e+0
RAAN
278.8131°
Arg perigee
204.1714°
Mean anomaly
203.5461°
Rev number
533

§ Raw data

TIANLIAN 2-051 63662U 25084A   26262.85374507  .00000117  00000+0  00000+0 0  99962 63662   4.2192 278.8131 0001193 204.1714 203.5461  1.00273883  5330

JSON: /api/v1/satellites/63662 · /tle

For live sub-satellite position, see the globe view (requires WebGL).

§ Visibility from observer

Set your observer location to see the next 7 days of passes ≥ 10°. The values pass through the URL so the page stays shareable.

No JS? Fill the form by hand. The geolocation button needs JavaScript.